TimeCST,TemperatureF,Dew PointF,Humidity,Sea Level PressureIn,VisibilityMPH,Wind Direction,Wind SpeedMPH,Gust SpeedMPH,PrecipitationIn,Events,Conditions,WindDirDegrees,DateUTC
12:53 AM,35.1,25.0,67,29.63,10.0,SSW,19.6,26.5,N/A,,Overcast,210,2014-01-10 06:53:00
1:53 AM,35.1,25.0,67,29.62,10.0,SSW,17.3,-,N/A,,Overcast,210,2014-01-10 07:53:00
2:53 AM,34.0,25.0,70,29.61,10.0,SW,6.9,-,N/A,,Partly Cloudy,220,2014-01-10 08:53:00
3:53 AM,33.1,25.0,72,29.60,10.0,SW,10.4,-,N/A,,Scattered Clouds,220,2014-01-10 09:53:00
4:53 AM,33.1,25.0,72,29.59,10.0,SW,6.9,-,N/A,,Scattered Clouds,230,2014-01-10 10:53:00
5:53 AM,32.0,25.0,75,29.60,10.0,WSW,9.2,-,N/A,,Partly Cloudy,240,2014-01-10 11:53:00
6:53 AM,32.0,25.0,75,29.60,10.0,Calm,Calm,-,N/A,,Mostly Cloudy,0,2014-01-10 12:53:00
7:53 AM,30.9,25.0,79,29.60,10.0,WNW,8.1,-,N/A,,Clear,290,2014-01-10 13:53:00
8:53 AM,30.9,25.0,79,29.62,10.0,West,9.2,-,N/A,,Clear,280,2014-01-10 14:53:00
9:53 AM,34.0,26.1,73,29.64,10.0,WNW,12.7,-,N/A,,Clear,290,2014-01-10 15:53:00
10:53 AM,36.0,26.1,67,29.64,10.0,NW,11.5,-,N/A,,Partly Cloudy,310,2014-01-10 16:53:00
11:53 AM,39.9,27.0,60,29.62,10.0,NW,15.0,-,N/A,,Clear,310,2014-01-10 17:53:00
12:53 PM,42.1,28.9,60,29.60,10.0,NW,11.5,-,N/A,,Clear,320,2014-01-10 18:53:00
1:53 PM,43.0,28.0,56,29.58,10.0,NW,15.0,-,N/A,,Clear,320,2014-01-10 19:53:00
2:53 PM,41.0,25.0,53,29.60,10.0,NW,11.5,-,N/A,,Clear,320,2014-01-10 20:53:00
3:53 PM,43.0,25.0,49,29.61,10.0,NW,9.2,-,N/A,,Clear,320,2014-01-10 21:53:00
4:53 PM,39.9,25.0,55,29.62,10.0,WNW,11.5,-,N/A,,Clear,300,2014-01-10 22:53:00
5:53 PM,35.1,24.1,64,29.64,10.0,WNW,9.2,-,N/A,,Clear,290,2014-01-10 23:53:00
6:53 PM,33.1,21.9,64,29.65,10.0,SW,6.9,-,N/A,,Clear,230,2014-01-11 00:53:00
7:53 PM,30.9,21.0,67,29.66,10.0,WSW,8.1,-,N/A,,Clear,250,2014-01-11 01:53:00
8:53 PM,30.9,19.9,64,29.66,10.0,WSW,8.1,-,N/A,,Clear,250,2014-01-11 02:53:00
9:53 PM,35.1,21.0,57,29.65,10.0,WSW,11.5,-,N/A,,Overcast,250,2014-01-11 03:53:00
10:53 PM,37.0,21.9,54,29.65,10.0,West,13.8,-,N/A,,Overcast,260,2014-01-11 04:53:00
11:53 PM,37.0,23.0,57,29.65,10.0,West,15.0,-,N/A,,Overcast,260,2014-01-11 05:53:00